CST,Max TemperatureF,Mean TemperatureF,Min TemperatureF,Max Dew PointF,MeanDew PointF,Min DewpointF,Max Humidity, Mean Humidity, Min Humidity, Max Sea Level PressureIn, Mean Sea Level PressureIn, Min Sea Level PressureIn, Max VisibilityMiles, Mean VisibilityMiles, Min VisibilityMiles, Max Wind SpeedMPH, Mean Wind SpeedMPH, Max Gust SpeedMPH,PrecipitationIn, CloudCover, Events, WindDirDegrees
2012-11-1,64,46,28,39,30,22,92,60,20,30.07,30.01,29.98,10,10,10,13,2,,0.00,1,,268
2012-11-2,75,55,37,49,43,36,93,68,35,30.04,30.00,29.96,10,10,10,13,2,,0.00,0,,264
2012-11-3,82,62,42,61,50,40,94,70,33,30.09,30.03,29.94,10,9,2,17,4,31,0.34,2,Thunderstorm,242
2012-11-4,62,50,37,58,46,37,97,79,44,30.14,30.08,30.00,10,10,5,9,4,18,0.00,2,,352
2012-11-5,57,46,34,43,38,33,97,74,44,30.14,30.06,29.99,10,8,4,10,3,,0.05,4,,58
2012-11-6,52,47,42,48,45,41,97,88,74,30.04,30.00,29.96,10,7,2,9,3,,0.06,7,,340
2012-11-7,53,45,37,43,41,36,97,82,58,30.15,30.01,29.94,10,9,5,14,6,25,0.03,5,,319
2012-11-8,57,44,30,42,35,30,100,90,53,30.28,30.21,30.14,7,3,0,6,0,,0.00,1,Fog,335
2012-11-9,66,48,30,44,36,29,100,79,32,30.33,30.25,30.19,10,6,2,7,1,,0.00,0,,160
2012-11-10,71,54,37,47,42,36,93,69,39,30.34,30.27,30.21,10,9,6,12,3,,0.00,0,,151
2012-11-11,71,56,42,51,46,38,86,62,39,30.31,30.22,30.14,10,10,10,22,9,28,0.00,0,,142
2012-11-12,64,49,32,57,49,29,100,89,63,30.44,30.25,30.13,10,6,1,16,10,22,0.80,6,Rain,305
2012-11-13,52,40,28,30,27,25,92,64,35,30.50,30.42,30.36,10,10,10,16,6,24,0.00,0,,15
2012-11-14,55,45,35,39,32,27,82,64,43,30.41,30.34,30.28,10,10,10,12,5,,0.00,1,,38
2012-11-15,60,45,30,38,32,29,96,68,32,30.35,30.30,30.25,10,10,8,8,1,,0.00,0,,6
2012-11-16,62,47,32,35,31,28,89,61,28,30.38,30.33,30.30,10,10,9,10,3,,0.00,0,,21
2012-11-17,62,46,30,37,33,28,92,67,32,30.46,30.40,30.36,10,10,7,7,2,,0.00,0,,354
2012-11-18,64,47,30,37,33,29,96,65,29,30.44,30.38,30.32,10,9,5,6,1,,0.00,0,,52
2012-11-19,64,48,33,43,39,31,93,74,43,30.35,30.28,30.21,10,10,9,5,0,,0.00,1,,267
2012-11-20,66,52,39,48,42,37,96,71,38,30.22,30.15,30.09,10,10,7,7,1,,0.00,2,,282
2012-11-21,69,54,39,48,43,38,96,74,44,30.22,30.18,30.12,10,9,6,8,2,,0.00,1,,356
2012-11-22,69,52,35,48,40,34,100,76,33,30.27,30.21,30.16,10,6,2,7,1,,0.00,0,,188
2012-11-23,59,48,37,50,41,29,97,73,41,30.24,30.18,30.14,10,9,6,15,5,,0.00,3,,306
2012-11-24,45,36,27,30,23,20,81,62,37,30.34,30.25,30.19,10,10,10,10,5,,0.00,0,,336
2012-11-25,57,40,24,30,24,21,92,62,24,30.21,30.14,30.07,10,10,10,9,3,,0.00,0,,161
2012-11-26,63,46,30,51,40,26,90,68,46,30.20,30.13,30.09,10,10,5,10,3,,0.02,7,Rain,156
2012-11-27,53,46,39,52,42,32,100,87,73,30.35,30.23,30.09,10,6,2,21,9,28,0.05,8,Rain,6
2012-11-28,52,41,28,33,30,26,89,72,38,30.48,30.42,30.35,10,8,6,8,5,,0.00,3,,2
2012-11-29,60,42,25,34,28,22,92,69,28,30.45,30.37,30.31,10,9,6,10,2,,0.00,0,,149
2012-11-30,63,46,30,45,38,28,97,75,43,30.36,30.30,30.24,10,10,8,8,2,,0.00,2,,180